Le nostre stazioni meteo in Italia

Pubblicità
Il mio iltempo24.it
Capo Frasca, Italia (16539): Temperatura & dewpoint: 14.08.2017 05:00:00 - 20.08.2017 05:00:00 (CEST)Capo Frasca, Italia (16539): velocità del vento: 14.08.2017 05:00:00 - 20.08.2017 05:00:00 (CEST)Capo Frasca, Italia (16539): direzione del vento: 14.08.2017 05:00:00 - 20.08.2017 05:00:00 (CEST)Capo Frasca, Italia (16539): reduced air pressure: 14.08.2017 05:00:00 - 20.08.2017 05:00:00 (CEST)Capo Frasca, Italia (16539): visibility: 14.08.2017 05:00:00 - 20.08.2017 05:00:00 (CEST)
Data & Tempo tt [°C] td [°C] ff [km/h] ff [kn] dd ppp [hPa] vv [km]
20.08.2017 05:00:00 - - - - - - -
20.08.2017 04:00:00 - - - - - - -
20.08.2017 03:00:00 - - - - - - -
20.08.2017 02:00:00 - - - - - - -
20.08.2017 01:00:00 - - - - - - -
20.08.2017 00:00:00 - - - - - - -
19.08.2017 23:00:00 - - - - - - -
19.08.2017 22:00:00 - - - - - - -
19.08.2017 21:00:00 - - - - - - -
19.08.2017 20:00:00 26,0 23,9 22 12 NO 1015,9 25
19.08.2017 19:00:00 - - - - - - -
19.08.2017 18:00:00 - - - - - - -
19.08.2017 17:00:00 - - - - - - -
19.08.2017 16:00:00 - - - - - - -
19.08.2017 15:00:00 - - - - - - -
19.08.2017 14:00:00 28,2 27,5 18 10 ONO 1016,2 30
19.08.2017 13:00:00 - - - - - - -
19.08.2017 12:00:00 - - - - - - -
19.08.2017 11:00:00 - - - - - - -
19.08.2017 10:00:00 - - - - - - -
19.08.2017 09:00:00 - - - - - - -
19.08.2017 08:00:00 23,2 22,4 8 4 OSO 1016,4 10
19.08.2017 07:00:00 - - - - - - -
19.08.2017 06:00:00 - - - - - - -
19.08.2017 05:00:00 - - - - - - -
19.08.2017 04:00:00 - - - - - - -
19.08.2017 03:00:00 - - - - - - -
19.08.2017 02:00:00 - - - - - - -
19.08.2017 01:00:00 - - - - - - -
19.08.2017 00:00:00 - - - - - - -
18.08.2017 23:00:00 - - - - - - -
18.08.2017 22:00:00 - - - - - - -
18.08.2017 21:00:00 - - - - - - -
18.08.2017 20:00:00 27,0 27,0 11 6 NO 1015,9 20
18.08.2017 19:00:00 - - - - - - -
18.08.2017 18:00:00 - - - - - - -
18.08.2017 17:00:00 28,6 27,7 16 9 O 1016,1 20
18.08.2017 16:00:00 - - - - - - -
18.08.2017 15:00:00 - - - - - - -
18.08.2017 14:00:00 28,6 25,4 15 8 NO 1016,5 20
18.08.2017 13:00:00 - - - - - - -
18.08.2017 12:00:00 - - - - - - -
18.08.2017 11:00:00 29,2 24,8 5 3 NNO 1017,0 20
18.08.2017 10:00:00 - - - - - - -
18.08.2017 09:00:00 - - - - - - -
18.08.2017 08:00:00 23,6 22,8 4 2 ONO 1016,9 10
18.08.2017 07:00:00 - - - - - - -
18.08.2017 06:00:00 - - - - - - -
18.08.2017 05:00:00 - - - - - - -
18.08.2017 04:00:00 - - - - - - -
18.08.2017 03:00:00 - - - - - - -
18.08.2017 02:00:00 - - - - - - -
18.08.2017 01:00:00 - - - - - - -
18.08.2017 00:00:00 - - - - - - -
17.08.2017 23:00:00 - - - - - - -
17.08.2017 22:00:00 - - - - - - -
17.08.2017 21:00:00 - - - - - - -
17.08.2017 20:00:00 27,4 26,7 11 6 O 1016,4 20
17.08.2017 19:00:00 - - - - - - -
17.08.2017 18:00:00 - - - - - - -
17.08.2017 17:00:00 28,6 26,2 22 12 NO 1016,3 20
17.08.2017 16:00:00 - - - - - - -
17.08.2017 15:00:00 - - - - - - -
17.08.2017 14:00:00 29,0 24,6 11 6 O 1017,0 20
17.08.2017 13:00:00 - - - - - - -
17.08.2017 12:00:00 - - - - - - -
17.08.2017 11:00:00 28,0 24,2 9 5 NNO 1017,4 20
17.08.2017 10:00:00 - - - - - - -
17.08.2017 09:00:00 - - - - - - -
17.08.2017 08:00:00 23,8 23,6 5 3 NE 1017,1 20
17.08.2017 07:00:00 - - - - - - -
17.08.2017 06:00:00 - - - - - - -
17.08.2017 05:00:00 - - - - - - -
17.08.2017 04:00:00 - - - - - - -
17.08.2017 03:00:00 - - - - - - -
17.08.2017 02:00:00 - - - - - - -
17.08.2017 01:00:00 - - - - - - -
17.08.2017 00:00:00 - - - - - - -
16.08.2017 23:00:00 - - - - - - -
16.08.2017 22:00:00 - - - - - - -
16.08.2017 21:00:00 - - - - - - -
16.08.2017 20:00:00 27,4 26,9 5 3 OSO 1017,3 20
16.08.2017 19:00:00 - - - - - - -
16.08.2017 18:00:00 - - - - - - -
16.08.2017 17:00:00 28,8 26,0 16 9 OSO 1017,4 20
16.08.2017 16:00:00 - - - - - - -
16.08.2017 15:00:00 - - - - - - -
16.08.2017 14:00:00 29,4 20,8 13 7 O 1017,8 20
16.08.2017 13:00:00 - - - - - - -
16.08.2017 12:00:00 - - - - - - -
16.08.2017 11:00:00 31,6 18,6 9 5 E 1018,6 20
16.08.2017 10:00:00 - - - - - - -
16.08.2017 09:00:00 - - - - - - -
16.08.2017 08:00:00 22,4 19,4 15 8 ESE 1018,3 20
16.08.2017 07:00:00 - - - - - - -
16.08.2017 06:00:00 - - - - - - -
16.08.2017 05:00:00 - - - - - - -
16.08.2017 04:00:00 - - - - - - -
16.08.2017 03:00:00 - - - - - - -
16.08.2017 02:00:00 - - - - - - -
16.08.2017 01:00:00 - - - - - - -
16.08.2017 00:00:00 - - - - - - -
15.08.2017 23:00:00 - - - - - - -
15.08.2017 22:00:00 - - - - - - -
15.08.2017 21:00:00 - - - - - - -
15.08.2017 20:00:00 28,2 21,7 11 6 NNO 1018,6 30
15.08.2017 19:00:00 - - - - - - -
15.08.2017 18:00:00 - - - - - - -
15.08.2017 17:00:00 - - - - - - -
15.08.2017 16:00:00 - - - - - - -
15.08.2017 15:00:00 - - - - - - -
15.08.2017 14:00:00 27,0 24,5 16 9 OSO 1019,4 30
15.08.2017 13:00:00 - - - - - - -
15.08.2017 12:00:00 - - - - - - -
15.08.2017 11:00:00 - - - - - - -
15.08.2017 10:00:00 - - - - - - -
15.08.2017 09:00:00 - - - - - - -
15.08.2017 08:00:00 22,0 20,3 13 7 ENE 1019,8 30
15.08.2017 07:00:00 - - - - - - -
15.08.2017 06:00:00 - - - - - - -
15.08.2017 05:00:00 - - - - - - -
15.08.2017 04:00:00 - - - - - - -
15.08.2017 03:00:00 - - - - - - -
15.08.2017 02:00:00 - - - - - - -
15.08.2017 01:00:00 - - - - - - -
15.08.2017 00:00:00 - - - - - - -
14.08.2017 23:00:00 - - - - - - -
14.08.2017 22:00:00 - - - - - - -
14.08.2017 21:00:00 - - - - - - -
14.08.2017 20:00:00 26,8 21,8 13 7 NO 1018,9 20
14.08.2017 19:00:00 - - - - - - -
14.08.2017 18:00:00 - - - - - - -
14.08.2017 17:00:00 27,6 22,8 15 8 NNO 1019,1 20
14.08.2017 16:00:00 - - - - - - -
14.08.2017 15:00:00 - - - - - - -
14.08.2017 14:00:00 25,6 22,9 18 10 ONO 1019,6 20
14.08.2017 13:00:00 - - - - - - -
14.08.2017 12:00:00 - - - - - - -
14.08.2017 11:00:00 28,8 18,9 11 6 E 1018,9 20
14.08.2017 10:00:00 - - - - - - -
14.08.2017 09:00:00 - - - - - - -
14.08.2017 08:00:00 22,0 19,5 13 7 E 1018,3 20
14.08.2017 07:00:00 - - - - - - -
14.08.2017 06:00:00 - - - - - - -
14.08.2017 05:00:00 - - - - - - -

tt = Temperatura
td = dewpoint
ff = velocità del vento
dd = direzione del vento
ppp = reduced air pressure
vv = visibility

Stazioni seguenti

WeatherPro
AMSI
MeteoEarth